Location: Unspecified
(0.0000°N, 0.0000°E)
Time: 18:51:29
(UTC+00:00)

Tiangong - Pass Details

Date: 13 January 2026
Orbit: 378 x 394 km, 41.5° (Epoch: 16 January)

Event Time Altitude Azimuth Distance (km) Brightness Sun altitude
Exits shadow 05:09:17 21° 253° (WSW) 929 -0.7 -13.8°
Maximum altitude 05:11:03 44° 316° (NW) 543 -1.8 -13.4°
Drops below altitude 10° 05:14:06 10° 30° (NNE) 1,400 0.8 -12.7°
Sets 05:16:13 0° 37° (NE) 2,254 2.0 -12.2°
